CW2433 Weather Reports


Display with metric or nautical units.
time (UTC)temp
F
wind
direction
speed
MPH
gust
MPH
rain 1hr
in
rain 24hr
in
rain mn
in
humidity
%
barometer
mb
20190817104509 73 74 0.0 3.0 0.00 0.00 0.00 88 1008.3
20190817104009 73 74 1.0 3.0 0.00 0.00 0.00 88 1008.4
20190817103510 72 108 0.0 1.0 0.00 0.00 0.00 88 1008.6
20190817103009 72 109 0.0 2.0 0.00 0.00 0.00 88 1009.0
20190817102509 72 110 0.0 3.0 0.00 0.00 0.00 88 1009.5
20190817102010 72 111 0.0 3.0 0.00 0.00 0.00 88 1009.8
20190817101509 72 152 0.0 3.0 0.00 0.00 0.00 88 1010.0
20190817101009 72 146 1.0 3.0 0.00 0.00 0.00 88 1010.4
20190817100510 72 155 2.0 3.0 0.00 0.00 0.00 88 1010.5
20190817100009 72 159 2.0 6.0 0.00 0.00 0.00 88 1010.7
20190817095509 72 165 2.0 6.0 0.00 0.00 0.00 88 1010.8
20190817095010 72 157 2.0 6.0 0.00 0.00 0.00 88 1011.0
20190817094509 72 167 2.0 6.0 0.00 0.00 0.00 88 1010.9
20190817094009 72 178 1.0 6.0 0.00 0.00 0.00 88 1010.9
20190817093510 72 154 1.0 7.0 0.00 0.00 0.00 88 1010.8
20190817093010 72 180 2.0 10.0 0.00 0.00 0.00 88 1010.6
20190817092509 72 160 3.0 10.0 0.00 0.00 0.00 88 1010.1
20190817092010 72 151 3.0 10.0 0.00 0.00 0.00 88 1009.8
20190817091509 72 170 2.0 8.0 0.00 0.00 0.00 88 1009.7
20190817091010 72 163 2.0 10.0 0.00 0.00 0.00 88 1009.8
20190817090510 72 140 2.0 10.0 0.00 0.00 0.00 88 1010.0
20190817090010 71 150 5.0 10.0 0.00 0.00 0.00 87 1010.0
20190817085509 71 167 4.0 7.0 0.00 0.00 0.00 87 1010.1
20190817085010 71 162 2.0 6.0 0.00 0.00 0.00 87 1010.1
20190817084510 71 144 0.0 5.0 0.00 0.00 0.00 87 1010.1
20190817084009 71 159 1.0 6.0 0.00 0.00 0.00 87 1009.7
20190817083510 71 155 2.0 6.0 0.00 0.00 0.00 87 1009.6
20190817083010 71 162 1.0 6.0 0.00 0.00 0.00 86 1009.5
20190817082510 71 144 1.0 6.0 0.00 0.00 0.00 86 1009.2
20190817082010 71 138 0.0 0.0 0.00 0.00 0.00 86 1008.9
20190817081509 71 132 0.0 0.0 0.00 0.00 0.00 86 1008.6
20190817081009 71 166 0.0 0.0 0.00 0.00 0.00 86 1008.4
20190817080510 71 167 0.0 0.0 0.00 0.00 0.00 86 1008.4
20190817080010 71 167 0.0 0.0 0.00 0.00 0.00 85 1008.1
20190817075509 71 167 0.0 0.0 0.00 0.00 0.00 85 1008.0
20190817075011 71 167 0.0 0.0 0.00 0.00 0.00 85 1007.5
20190817074510 71 96 0.0 0.0 0.00 0.00 0.00 85 1007.5
20190817074009 71 94 0.0 0.0 0.00 0.00 0.00 85 1007.7
20190817073510 71 84 0.0 0.0 0.00 0.00 0.00 85 1007.9
20190817073010 71 5 0.0 0.0 0.00 0.00 0.00 85 1008.0
20190817072509 71 5 0.0 0.0 0.00 0.00 0.00 84 1008.1
20190817072011 71 5 0.0 0.0 0.00 0.00 0.00 84 1008.4
20190817071510 71 5 0.0 0.0 0.00 0.00 0.00 84 1008.5
20190817071010 71 5 0.0 0.0 0.00 0.00 0.00 84 1008.5
20190817070510 71 5 0.0 0.0 0.00 0.00 0.00 84 1008.5
20190817070010 72 5 0.0 0.0 0.00 0.00 0.00 84 1008.4
20190817065510 72 5 0.0 0.0 0.00 0.00 0.00 83 1007.4
20190817065011 72 17 0.0 0.0 0.00 0.00 0.00 83 1007.3
20190817064510 72 17 0.0 0.0 0.00 0.00 0.00 83 1007.4
20190817064010 72 15 0.0 0.0 0.00 0.00 0.00 83 1007.0
20190817063511 72 0 0.0 0.0 0.00 0.00 0.00 82 1007.8
20190817063010 72 122 0.0 0.0 0.00 0.00 0.00 82 1009.0
20190817062510 72 94 0.0 0.0 0.00 0.00 0.00 82 1008.6
20190817062011 72 0 0.0 0.0 0.00 0.00 0.00 82 1008.3
20190817061510 72 23 0.0 0.0 0.00 0.00 0.00 81 1008.3
20190817061010 72 30 0.0 0.0 0.00 0.00 0.00 81 1009.1
20190817060511 73 34 0.0 0.0 0.00 0.00 0.00 81 1009.2
20190817060010 73 150 0.0 0.0 0.00 0.00 0.00 80 1009.9
20190817055510 73 154 0.0 0.0 0.00 0.00 0.00 80 1010.8
20190817055011 73 155 0.0 0.0 0.00 0.00 0.00 79 1010.8
20190817054509 73 155 0.0 0.0 0.00 0.00 0.00 79 1011.0
20190817054009 73 155 0.0 0.0 0.00 0.00 0.00 78 1011.2
20190817053510 73 155 0.0 0.0 0.00 0.00 0.00 78 1011.3
20190817053009 73 155 0.0 0.0 0.00 0.00 0.00 77 1011.3
20190817052509 73 155 0.0 0.0 0.00 0.00 0.00 77 1011.3
20190817052010 73 155 0.0 0.0 0.00 0.00 0.00 77 1011.3
20190817051509 73 155 0.0 0.0 0.00 0.00 0.00 77 1011.2
20190817051009 73 155 0.0 0.0 0.00 0.00 0.00 76 1011.2
20190817050510 73 155 0.0 0.0 0.00 0.00 0.00 76 1011.2
20190817050010 73 155 0.0 0.0 0.00 0.00 0.00 76 1011.1
20190817045513 73 155 0.0 0.0 0.00 0.00 0.00 75 1010.9
20190817045010 73 155 0.0 0.0 0.00 0.00 0.00 75 1010.8
20190817044510 74 120 0.0 0.0 0.00 0.00 0.00 75 1010.6
20190817044009 74 117 0.0 0.0 0.00 0.00 0.00 74 1010.6
20190817043510 74 117 0.0 0.0 0.00 0.00 0.00 74 1010.3
20190817043010 74 117 0.0 0.0 0.00 0.00 0.00 74 1010.3
20190817042509 74 117 0.0 0.0 0.00 0.00 0.00 74 1010.2
20190817042010 74 117 0.0 0.0 0.00 0.00 0.00 74 1010.3
20190817041510 74 101 0.0 0.0 0.00 0.00 0.00 74 1010.4
20190817041010 74 113 0.0 0.0 0.00 0.00 0.00 73 1010.6
20190817040510 74 142 0.0 0.0 0.00 0.00 0.00 73 1010.7
20190817040010 74 142 0.0 0.0 0.00 0.00 0.00 73 1010.9
20190817035510 74 74 0.0 0.0 0.00 0.00 0.00 73 1010.8
20190817035011 74 74 0.0 0.0 0.00 0.00 0.00 72 1010.8
20190817034510 74 74 0.0 0.0 0.00 0.00 0.00 72 1010.8
20190817034010 74 74 0.0 0.0 0.00 0.00 0.00 72 1010.8
20190817033511 74 131 0.0 0.0 0.00 0.00 0.00 71 1010.9
20190817033010 74 136 0.0 0.0 0.00 0.00 0.00 71 1010.9
20190817032510 74 113 0.0 0.0 0.00 0.00 0.00 70 1010.9
20190817032011 74 113 0.0 0.0 0.00 0.00 0.00 70 1010.8
20190817031510 75 113 0.0 0.0 0.00 0.00 0.00 69 1010.9
20190817031010 75 113 0.0 0.0 0.00 0.00 0.00 69 1010.9
20190817030511 75 113 0.0 0.0 0.00 0.00 0.00 69 1010.9
20190817030010 75 113 0.0 0.0 0.00 0.00 0.00 69 1011.3
20190817025510 75 113 0.0 0.0 0.00 0.00 0.00 69 1011.3
20190817025011 75 112 0.0 0.0 0.00 0.00 0.00 69 1011.1
20190817024510 75 112 0.0 0.0 0.00 0.00 0.00 69 1011.3
20190817024010 75 112 0.0 0.0 0.00 0.00 0.00 69 1011.3
20190817023510 75 112 0.0 0.0 0.00 0.00 0.00 69 1011.1
20190817023009 75 112 0.0 0.0 0.00 0.00 0.00 68 1011.1
20190817022509 76 112 0.0 0.0 0.00 0.00 0.00 68 1010.9
20190817022010 76 112 0.0 0.0 0.00 0.00 0.00 68 1010.8
20190817021509 76 112 0.0 0.0 0.00 0.00 0.00 67 1010.8
20190817021009 76 112 0.0 0.0 0.00 0.00 0.00 67 1010.7
20190817020510 76 113 0.0 0.0 0.00 0.00 0.00 66 1010.6
20190817020009 76 113 0.0 0.0 0.00 0.00 0.00 65 1010.5
20190817015509 76 113 0.0 0.0 0.00 0.00 0.00 64 1010.4
20190817015010 77 113 0.0 0.0 0.00 0.00 0.00 64 1010.4
20190817014509 77 113 0.0 0.0 0.00 0.00 0.00 63 1010.4
20190817014009 77 113 0.0 0.0 0.00 0.00 0.00 62 1010.4
20190817013510 77 113 0.0 1.0 0.00 0.00 0.00 62 1010.4
20190817013009 78 113 0.0 1.0 0.00 0.00 0.00 61 1010.4
20190817012509 78 113 0.0 1.0 0.00 0.00 0.00 61 1010.4
20190817012010 78 113 0.0 1.0 0.00 0.00 0.00 60 1010.4
20190817011510 78 113 0.0 1.0 0.00 0.00 0.00 60 1010.4
20190817011009 78 113 0.0 1.0 0.00 0.00 0.00 59 1010.4
20190817010510 79 113 0.0 1.0 0.00 0.00 0.00 59 1010.4
20190817010010 79 110 0.0 1.0 0.00 0.00 0.00 58 1010.5
20190817005509 79 101 0.0 1.0 0.00 0.00 0.00 58 1010.5
20190817005010 79 63 0.0 1.0 0.00 0.00 0.00 57 1010.4
20190817004509 79 59 0.0 3.0 0.00 0.00 0.00 57 1010.4
20190817004009 79 55 0.0 3.0 0.00 0.00 0.00 56 1010.4
20190817003510 79 85 0.0 3.0 0.00 0.00 0.00 56 1010.4
20190817003009 79 80 0.0 3.0 0.00 0.00 0.00 56 1010.4
20190817002509 80 54 2.0 6.0 0.00 0.00 0.00 55 1010.3
20190817002010 80 49 2.0 6.0 0.00 0.00 0.00 54 1010.3
20190817001510 80 75 4.0 6.0 0.00 0.00 0.00 54 1010.3
20190817001009 80 77 1.0 5.0 0.00 0.00 0.00 55 1010.3
20190817000511 80 89 2.0 5.0 0.00 0.00 0.00 56 1010.4
20190817000010 80 50 1.0 5.0 0.00 0.00 0.00 56 1010.5
20190816235509 80 69 1.0 5.0 0.00 0.00 0.00 56 1010.6
20190816235010 80 141 1.0 5.0 0.00 0.00 0.00 55 1010.7
20190816234510 81 68 2.0 5.0 0.00 0.00 0.00 55 1010.8
20190816234009 81 37 2.0 6.0 0.00 0.00 0.00 55 1010.8
20190816233510 81 146 2.0 6.0 0.00 0.00 0.00 53 1010.7
20190816233010 81 72 0.0 6.0 0.00 0.00 0.00 53 1010.8
20190816232510 81 57 3.0 6.0 0.00 0.00 0.00 52 1010.7
20190816232010 81 126 1.0 5.0 0.00 0.00 0.00 52 1010.8
20190816231510 81 85 1.0 6.0 0.00 0.00 0.00 52 1010.8
20190816231009 82 75 3.0 9.0 0.00 0.00 0.00 52 1010.8
20190816230511 82 29 3.0 9.0 0.00 0.00 0.00 51 1010.8
20190816230010 81 61 2.0 7.0 0.00 0.00 0.00 51 1010.9
20190816225510 81 21 3.0 6.0 0.00 0.00 0.00 50 1010.9
20190816225011 82 32 2.0 5.0 0.00 0.00 0.00 50 1010.9
20190816224510 82 34 2.0 6.0 0.00 0.00 0.00 50 1010.9
20190816224010 82 33 2.0 7.0 0.00 0.00 0.00 50 1010.8
20190816223511 82 38 3.0 7.0 0.00 0.00 0.00 49 1010.8
20190816223010 82 37 3.0 6.0 0.00 0.00 0.00 50 1010.9
20190816222510 82 5 3.0 6.0 0.00 0.00 0.00 51 1010.9
20190816222011 82 45 2.0 7.0 0.00 0.00 0.00 50 1010.9
20190816221510 82 349 3.0 7.0 0.00 0.00 0.00 50 1010.9
20190816221010 82 65 2.0 6.0 0.00 0.00 0.00 51 1010.9
20190816220511 82 351 2.0 6.0 0.00 0.00 0.00 49 1010.9
20190816220010 82 60 2.0 6.0 0.00 0.00 0.00 50 1010.9
20190816215510 82 28 3.0 7.0 0.00 0.00 0.00 48 1010.9
20190816215011 82 14 2.0 7.0 0.00 0.00 0.00 50 1010.9
20190816214510 82 31 2.0 6.0 0.00 0.00 0.00 50 1010.9
20190816214010 82 22 3.0 6.0 0.00 0.00 0.00 49 1010.8
20190816213511 82 39 1.0 3.0 0.00 0.00 0.00 50 1010.9
20190816213010 83 75 1.0 3.0 0.00 0.00 0.00 51 1010.5
20190816212509 83 261 0.0 2.0 0.00 0.00 0.00 52 1010.8
20190816212010 83 267 0.0 6.0 0.00 0.00 0.00 51 1011.1
20190816211509 83 35 0.0 6.0 0.00 0.00 0.00 48 1010.8
20190816211009 83 16 1.0 3.0 0.00 0.00 0.00 50 1010.9
20190816210510 83 8 1.0 3.0 0.00 0.00 0.00 53 1011.0
20190816210009 83 31 2.0 3.0 0.00 0.00 0.00 51 1011.0
20190816205509 83 21 0.0 3.0 0.00 0.00 0.00 53 1011.0
20190816205010 83 150 1.0 3.0 0.00 0.00 0.00 53 1010.9
20190816204509 83 139 1.0 3.0 0.00 0.00 0.00 54 1011.2
20190816204009 82 145 1.0 3.0 0.00 0.00 0.00 53 1011.4
20190816203510 82 140 1.0 5.0 0.00 0.00 0.00 55 1011.3
20190816203009 82 175 0.0 7.0 0.00 0.00 0.00 57 1011.3
20190816202509 82 144 0.0 7.0 0.00 0.00 0.00 56 1011.3
20190816202010 82 143 1.0 5.0 0.00 0.00 0.00 55 1011.4
20190816201509 82 134 1.0 5.0 0.00 0.00 0.00 54 1011.6
20190816201009 82 163 0.0 5.0 0.00 0.00 0.00 54 1011.7
20190816200510 82 149 0.0 5.0 0.00 0.00 0.00 55 1011.8
20190816200009 82 149 1.0 7.0 0.00 0.00 0.00 53 1011.9
20190816195509 81 141 1.0 7.0 0.00 0.00 0.00 56 1011.9
20190816195010 81 186 1.0 5.0 0.00 0.00 0.00 53 1011.9
20190816194509 81 166 1.0 6.0 0.00 0.00 0.00 50 1012.0
20190816194009 81 143 2.0 6.0 0.00 0.00 0.00 49 1012.1
20190816193510 81 210 1.0 2.0 0.00 0.00 0.00 55 1012.1
20190816193009 81 219 0.0 2.0 0.00 0.00 0.00 54 1012.2
20190816192509 81 131 1.0 3.0 0.00 0.00 0.00 57 1012.2
20190816192010 80 156 1.0 3.0 0.00 0.00 0.00 56 1012.3
20190816191509 80 147 0.0 5.0 0.00 0.00 0.00 60 1012.2
20190816191009 80 136 2.0 5.0 0.00 0.00 0.00 57 1012.1
20190816190510 79 98 1.0 5.0 0.00 0.00 0.00 58 1012.1
20190816190009 80 122 1.0 7.0 0.00 0.00 0.00 60 1012.1
20190816185509 79 163 2.0 7.0 0.00 0.00 0.00 60 1011.9
20190816185010 80 164 1.0 6.0 0.00 0.00 0.00 60 1011.9
20190816184510 80 33 2.0 6.0 0.00 0.00 0.00 60 1011.9
20190816184010 79 32 1.0 6.0 0.00 0.00 0.00 60 1011.9
20190816183510 79 26 2.0 6.0 0.00 0.01 0.00 60 1012.2
20190816183010 79 142 1.0 5.0 0.00 0.01 0.00 64 1012.4
20190816182510 78 155 2.0 5.0 0.00 0.02 0.00 63 1012.5
20190816182010 79 222 1.0 5.0 0.00 0.02 0.00 64 1012.9
20190816181510 78 157 1.0 5.0 0.00 0.03 0.00 64 1012.9
20190816181009 79 181 1.0 5.0 0.00 0.04 0.00 65 1012.7
20190816180511 79 161 2.0 5.0 0.00 0.05 0.00 67 1012.5
20190816180010 78 142 1.0 6.0 0.00 0.07 0.00 66 1012.4
20190816175509 78 131 1.0 6.0 0.00 0.08 0.00 64 1012.4
20190816175011 78 111 1.0 5.0 0.00 0.10 0.00 64 1012.5
20190816174510 78 161 0.0 5.0 0.00 0.12 0.00 64 1012.7
20190816174010 77 142 0.0 2.0 0.00 0.14 0.00 65 1012.7
20190816173511 77 191 0.0 2.0 0.00 0.15 0.00 64 1012.8
20190816173010 77 177 0.0 3.0 0.00 0.17 0.00 68 1013.0
20190816172510 76 107 0.0 3.0 0.00 0.19 0.00 64 1012.9
20190816172011 76 145 1.0 3.0 0.00 0.21 0.00 67 1013.0
20190816171510 76 153 0.0 5.0 0.00 0.22 0.00 67 1013.1
20190816171010 76 141 1.0 5.0 0.00 0.23 0.00 66 1013.0
20190816170511 76 165 1.0 3.0 0.00 0.23 0.00 69 1013.0
20190816170010 75 246 0.0 3.0 0.00 0.24 0.00 71 1012.7
20190816165510 74 245 0.0 3.0 0.00 0.24 0.00 69 1013.0
20190816165011 74 5 0.0 3.0 0.00 0.25 0.00 73 1012.9
20190816164510 74 5 1.0 3.0 0.00 0.26 0.00 69 1012.8
20190816164010 74 14 1.0 3.0 0.00 0.26 0.00 72 1012.7
20190816163511 73 53 0.0 3.0 0.00 0.26 0.00 74 1012.8
20190816163010 73 38 0.0 3.0 0.00 0.26 0.00 73 1012.8
20190816162510 72 24 1.0 3.0 0.00 0.26 0.00 76 1013.1
20190816162011 72 111 0.0 1.0 0.00 0.26 0.00 76 1013.1
20190816161510 72 110 0.0 3.0 0.00 0.26 0.00 77 1013.0
20190816161010 71 74 0.0 3.0 0.00 0.26 0.00 78 1013.0
20190816160511 71 28 2.0 3.0 0.00 0.26 0.00 78 1013.0
20190816160010 71 344 2.0 5.0 0.00 0.26 0.00 78 1012.9
20190816155510 71 23 2.0 6.0 0.00 0.26 0.00 79 1012.8
20190816155010 71 52 1.0 6.0 0.00 0.26 0.00 79 1012.7
20190816154509 71 13 2.0 6.0 0.00 0.26 0.00 79 1012.7
20190816154009 70 42 2.0 6.0 0.00 0.26 0.00 80 1012.9
20190816153510 70 355 1.0 6.0 0.00 0.26 0.00 81 1012.8
20190816153009 70 5 3.0 6.0 0.00 0.26 0.00 82 1013.0
20190816152509 70 37 2.0 6.0 0.00 0.26 0.00 82 1012.7
20190816152010 69 24 2.0 5.0 0.00 0.26 0.00 83 1012.6
20190816151509 69 23 0.0 3.0 0.00 0.26 0.00 84 1012.6
20190816151009 69 69 1.0 3.0 0.00 0.26 0.00 85 1012.1
20190816150510 69 80 0.0 3.0 0.00 0.26 0.00 85 1012.2
20190816150009 69 69 1.0 3.0 0.00 0.26 0.00 86 1012.1
20190816145509 69 354 2.0 3.0 0.00 0.26 0.00 87 1012.6
20190816145010 69 5 0.0 0.0 0.00 0.26 0.00 88 1012.6
20190816144509 69 5 0.0 2.0 0.00 0.26 0.00 88 1012.3
20190816144009 69 5 0.0 3.0 0.00 0.26 0.00 88 1012.5
20190816143510 69 0 1.0 3.0 0.00 0.26 0.00 89 1012.6
20190816143009 69 5 1.0 3.0 0.00 0.26 0.00 90 1012.8
20190816142509 69 11 0.0 3.0 0.00 0.26 0.00 91 1013.1
20190816142010 68 5 0.0 3.0 0.00 0.26 0.00 91 1013.2
20190816141509 68 338 1.0 2.0 0.00 0.26 0.00 92 1013.3
20190816141009 68 258 0.0 1.0 0.00 0.26 0.00 92 1013.8
20190816140510 68 259 0.0 2.0 0.00 0.26 0.00 92 1013.8
20190816140010 68 266 1.0 2.0 0.00 0.26 0.00 92 1013.9
20190816135510 67 220 0.0 1.0 0.00 0.26 0.00 93 1013.8
20190816135010 67 220 0.0 1.0 0.00 0.26 0.00 93 1013.8
20190816134509 67 220 0.0 0.0 0.00 0.26 0.00 93 1013.8
20190816134009 67 220 0.0 1.0 0.00 0.26 0.00 93 1013.8
20190816133510 67 220 0.0 1.0 0.00 0.26 0.00 92 1013.8
20190816133010 67 242 0.0 0.0 0.00 0.26 0.00 92 1013.7
20190816132509 67 242 0.0 0.0 0.00 0.26 0.00 93 1013.6
20190816132011 67 242 0.0 0.0 0.00 0.26 0.00 93 1013.4
20190816131510 67 242 0.0 1.0 0.00 0.26 0.00 93 1013.4
20190816131009 67 243 0.0 1.0 0.00 0.26 0.00 93 1013.3
20190816130511 67 243 0.0 1.0 0.00 0.26 0.00 93 1013.6
20190816130011 66 244 0.0 1.0 0.00 0.26 0.00 93 1013.7
20190816125510 66 243 0.0 2.0 0.00 0.26 0.00 93 1013.9
20190816125010 66 243 0.0 2.0 0.00 0.26 0.00 93 1014.0
20190816124510 66 205 0.0 2.0 0.00 0.26 0.00 93 1014.0
20190816124009 65 145 0.0 0.0 0.00 0.26 0.00 93 1013.9
20190816123510 65 145 0.0 0.0 0.00 0.26 0.00 93 1013.9
20190816123010 65 146 0.0 0.0 0.00 0.26 0.00 92 1014.0
20190816122510 65 145 0.0 0.0 0.00 0.26 0.00 92 1014.3
20190816122011 65 145 0.0 0.0 0.00 0.26 0.00 92 1014.1
20190816121510 65 145 0.0 0.0 0.00 0.26 0.00 92 1014.0
20190816121009 65 145 0.0 2.0 0.00 0.26 0.00 92 1013.9
20190816120511 65 145 0.0 2.0 0.00 0.26 0.00 92 1014.2
20190816120010 65 144 0.0 2.0 0.00 0.26 0.00 92 1014.2
20190816115510 65 15 0.0 0.0 0.00 0.26 0.00 92 1013.9
20190816115011 65 14 0.0 0.0 0.00 0.26 0.00 92 1013.8
20190816114510 65 14 0.0 0.0 0.00 0.26 0.00 92 1013.8
20190816114010 65 14 0.0 0.0 0.00 0.26 0.00 92 1013.7
20190816113511 65 14 0.0 0.0 0.00 0.26 0.00 92 1013.7
20190816113010 65 14 0.0 0.0 0.00 0.26 0.00 92 1013.8
20190816112510 65 14 0.0 3.0 0.00 0.26 0.00 92 1013.7
20190816112011 65 14 0.0 3.0 0.00 0.26 0.00 92 1013.5
20190816111510 65 12 1.0 3.0 0.00 0.26 0.00 92 1013.3
20190816111010 65 15 0.0 2.0 0.00 0.26 0.00 92 1013.3
20190816110511 65 15 1.0 2.0 0.00 0.26 0.00 92 1013.2
20190816110010 65 5 0.0 0.0 0.00 0.26 0.00 91 1012.9
20190816105510 65 5 0.0 3.0 0.00 0.26 0.00 91 1012.7
20190816105011 65 5 0.0 3.0 0.00 0.26 0.00 91 1012.7